Showing default

AEROCUBE 5C, 40965

Orbit data source: Space-Track

AEROCUBE 5C, 40965 is a payload satellite owned by AERO (US) in LEO that was launched on Thu, 08 Oct 2015 UTC via an ATLAS V 401 launch vehicle from the Air Force Western Test Range (AFWTR). Payload-class satellites include a variety of spacecraft equipped with specific instruments for various scientific and technological missions. These include communications satellites like Starlink; space stations such as the ISS; scientific satellites like the Hubble; Earth observation satellites from companies like Planet Labs, Umbra, and HawkEye 360; GPS; miniature CubeSats for education and research; and military/defense satellites.

Loading next visibility...
Identifier
40965, 2015-058B
Orbit
LEO
Country
Flag of USUS
Related business
Manufacturer
AERO
Mission
Operational Defense Technology
Bus & Motor
CUBESAT 1.5U, Unknown motor
Mass
2 kg wet, 2 kg dry
Launch date (UTC)
2015-10-08 (10 years ago)
Launch vehicle
ATLAS V 401
Launch site
Air Force Western Test Range (AFWTR)
Object type
Payload
Rocket body
Debris
Shape & HBR
Box, 0.1 m
Radar Cross Section
0.025 m²

Expand to show TLE details & history
Last TLE update: 20 hours ago

TLE from 20 hours ago
0 AEROCUBE 5C
1 40965U 15058B   25302.18652311  .00003426  00000-0  30896-3 0  9996
2 40965  64.7671 260.3510 0143713 152.5985 208.2802 14.89700599331223
Epoch: 2025-10-29T04:28Z
TLE epoch observation values (Epoch: 2025-10-29T04:28:35.596Z)
Latitude
-0.00006°
Longitude
155.43938°
Altitude
689.505 km
Speed
7.464 km/s
True Right ascension
17h 21m 24s
True Declination
0° 00' 00"
Sunlit
Object was in daylight at epoch
Visualization orbit readout
Latitude
Unknown
Longitude
Unknown
Altitude
Unknown
Speed
Unknown
Apparent Right ascension
Unknown
Apparent Declination
Unknown
Sunlit
N/A
Visualization observer readout
Local Sidereal Time
19:49:48
Azimuth
Unknown
Elevation
Unknown
Doppler factor
Unknown
Orbital elements
Apogee altitude
697.687 km
Perigee altitude
497.191 km
Semi-major axis
6,975.576 km
Eccentricity
0.01437
Inclination
64.7671°
RAAN
260.351°
Arg. of periapsis
152.5985°
True anomaly
207.51214°
Mean anomaly
208.2802°
Eccentric anomaly
207.89496°
Mean motion
3.7254 °/min
Orbital period
96.63 mins
BSTAR
0.00030896
Loading maneuver chart data...
Computing Atmospheric mass density...
Loading historical data...
Loading historical data...
Loading historical data...
Loading historical data...
Loading historical data...
Loading historical data...
Loading historical data...

Documentation

Showing up to 5 results
|